STARLINK-35348, 65904

Orbit data source: Space-Track

STARLINK-35348, 65904 is a payload satellite owned by SpaceX/Seattle (US) in LEO that was launched on Tue, 07 Oct 2025 UTC via an FALCON 9 launch vehicle from the Air Force Eastern Test Range (AFETR). Payload-class satellites include a variety of spacecraft equipped with specific instruments for various scientific and technological missions. These include communications satellites like Starlink; space stations such as the ISS; scientific satellites like the Hubble; Earth observation satellites from companies like Planet Labs, Umbra, and HawkEye 360; GPS; miniature CubeSats for education and research; and military/defense satellites.

Loading next visibility...
Identifier
65904, 2025-224Y
Orbit
LEO
Country
Flag of USUS
Related business
Manufacturer
SpaceX/Seattle
Mission
Operational spacecraft
Bus & Motor
STARLINK V2MO, Unknown motor
Mass
575 kg wet, ~530 kg dry
Launch date (UTC)
2025-10-07 (2 months ago)
Launch vehicle
FALCON 9
Launch site
Air Force Eastern Test Range (AFETR)
Object type
Payload
Rocket body
Debris
Shape & HBR
Unknown shape, 17.7 m
Radar Cross Section
RCS unknown

Expand to show TLE details & history
Last TLE update: 15 hours ago

TLE from 15 hours ago
0 STARLINK-35348
1 65904U 25224Y   25340.59218189  .00047103  00000-0  15913-2 0  9992
2 65904  53.1600  83.5548 0001025  66.0911 294.0198 15.30222142 10573
Epoch: 2025-12-06T14:12Z
TLE epoch observation values (Epoch: 2025-12-06T14:12:44.515Z)
Latitude
0.00006°
Longitude
154.75166°
Altitude
475.763 km
Speed
7.629 km/s
True Right ascension
05h 34m 13s
True Declination
0° 00' 00"
Sunlit
Object was in full shadow at epoch
Visualization orbit readout
Latitude
Unknown
Longitude
Unknown
Altitude
Unknown
Speed
Unknown
Apparent Right ascension
Unknown
Apparent Declination
Unknown
Sunlit
N/A
Visualization observer readout
Local Sidereal Time
03:09:56
Azimuth
Unknown
Elevation
Unknown
Doppler factor
Unknown
Orbital elements
Apogee altitude
476.108 km
Perigee altitude
474.703 km
Semi-major axis
6,853.542 km
Eccentricity
0.0001
Inclination
53.16°
RAAN
83.5548°
Arg. of periapsis
66.0911°
True anomaly
294.00907°
Mean anomaly
294.0198°
Eccentric anomaly
294.01444°
Mean motion
3.82534 °/min
Orbital period
94.11 mins
BSTAR
0.0015913
Loading maneuver chart data...
Computing Atmospheric mass density...
Loading historical data...
Loading historical data...
Loading historical data...
Loading historical data...
Loading historical data...
Loading historical data...
Loading historical data...

Documentation

Showing up to 5 results
|